This is the latest recevied weather packets stored in our database for station/object WK7G. If no packets are shown the sender has not sent any weather packets the latest 10 day(s).
| Time | Temp. | Humidity | Pressure | Rain* | Wind** | Luminosity | Snow |
|---|---|---|---|---|---|---|---|
| 1777521796 | 0.56° C | 87% | 1015.2 hPa | 0 mm | - | 0 W/m² | - |
| 1777521492 | 0.56° C | 86% | 1014.9 hPa | 0 mm | - | 0 W/m² | - |
| 1777521189 | 0.56° C | 86% | 1014.8 hPa | 0 mm | - | 0 W/m² | - |
| 1777520887 | 0.56° C | 87% | 1014.9 hPa | 0 mm | - | 0 W/m² | - |
| 1777520584 | 0.56° C | 86% | 1014.7 hPa | 0 mm | - | 0 W/m² | - |
| 1777520280 | 0.56° C | 86% | 1014.9 hPa | 0 mm | - | 0 W/m² | - |
| 1777519979 | 1.11° C | 85% | 1014.7 hPa | 0 mm | - | 0 W/m² | - |
| 1777519675 | 1.11° C | 85% | 1014.6 hPa | 0 mm | - | 0 W/m² | - |
| 1777519371 | 0.56° C | 85% | 1014.7 hPa | 0 mm | - | 0 W/m² | - |
| 1777519068 | 0.56° C | 85% | 1014.7 hPa | 0 mm | - | 0 W/m² | - |
| 1777518764 | 1.11° C | 83% | 1014.5 hPa | 0 mm | - | 0 W/m² | - |
| 1777518461 | 2.22° C | 82% | 1014.3 hPa | 0 mm | - | 0 W/m² | - |
| 1777518156 | 2.22° C | 81% | 1014.5 hPa | 0 mm | - | 0 W/m² | - |
| 1777517853 | 2.22° C | 80% | 1014.2 hPa | 0 mm | - | 0 W/m² | - |
| 1777517548 | 2.78° C | 80% | 1014.5 hPa | 0 mm | - | 0 W/m² | - |
| 1777517247 | 2.22° C | 81% | 1014.2 hPa | 0 mm | - | 0 W/m² | - |
| 1777516946 | 2.78° C | 81% | 1014.1 hPa | 0 mm | - | 0 W/m² | - |
| 1777516642 | 2.78° C | 81% | 1014.2 hPa | 0 mm | - | 0 W/m² | - |
| 1777516338 | 2.78° C | 80% | 1014 hPa | 0 mm | - | 0 W/m² | - |
| 1777516034 | 3.33° C | 78% | 1013.9 hPa | 0 mm | - | 2 W/m² | - |
| 1777515731 | 2.78° C | 79% | 1014.1 hPa | 0 mm | - | 3 W/m² | - |
| 1777515428 | 3.33° C | 77% | 1013.9 hPa | 0 mm | - | 6 W/m² | - |
| 1777515124 | 3.89° C | 76% | 1013.9 hPa | 0 mm | - | 9 W/m² | - |
| 1777514821 | 4.44° C | 74% | 1014.1 hPa | 0 mm | - | 12 W/m² | - |
| 1777514518 | 4.44° C | 75% | 1013.9 hPa | 0 mm | - | 15 W/m² | - |
* Rain latest hour (hover to see other rain measurements)
** Current wind speed in m/s (hover to see current wind gust speed)